User: anonymous   Login
Location: Dover
(39.1580°N, 75.5250°W)
Time: 23:17:31
(UTC-05:00)
Language:

Cosmos 1437 Rocket - Orbit

View from above orbital plane
View from above orbital plane
View from above satellite
View from above satellite

Ground track
Ground track

The orbit data is extracted from the following two-line orbital elements,

1 13771U 83003B   15027.79615154  .00002754  00000-0  17785-3 0  2336
2 13771 081.1586 286.5868 0030623 010.5650 349.6210 15.07554817742375
Epoch (UTC): 27 January 2015 19:06:27
Eccentricity: 0.0030623
inclination: 81.1586°
perigee height: 522 km
apogee height: 565 km
right ascension of ascending node: 286.5868°
argument of perigee: 10.5650°
revolutions per day: 15.07554817
mean anomaly at epoch: 349.6210°
orbit number at epoch: 74237

The dashed part of the orbit path shows where the satellite is in the earth's shadow,  

DLR